Regional Weather Roundup
Issued by NWS

Home | Current Version | Previous Version | Text Only | Print | Product List | Glossary On
Versions: 1 2 3 4 5 6 7 8 9 10 11 12 13 14 15 16 17 18 19 20 21 22 23 24 25 26 27 28 29 30 31 32 33 34 35 36 37 38 39 40 41 42 43 44 45 46 47 48 49 50
152
ASUS44 KJAN 260810
RWRMS

MISSISSIPPI HOURLY WEATHER ROUNDUP
NATIONAL WEATHER SERVICE JACKSON MS
300 AM CDT SAT JUL 26 2014

NOTE: "FAIR: INDICATES FEW OR NO CLOUDS BELOW 12,000 FEET WITH NO
SIGNIFICANT WEATHER AND/OR OBSTRUCTIONS TO VISIBILITY.

MSZ001>002-007>008-010>013-018>021-025>028-034>036-260900-
NORTHWEST MISSISSIPPI

CITY           SKY/WX    TMP DP  RH WIND       PRES   REMARKS
CLARKSDALE     FAIR      72  70  94 CALM      30.00S
CLEVELAND      FAIR      71  70  95 CALM      29.99R
GREENWOOD      CLEAR     68  66  93 CALM      30.00S
GREENVILLE     CLEAR     71  68  90 S3        29.98F
GRENADA        FAIR      64  64 100 CALM      30.01S
OLIVE BRANCH   CLEAR     66  66 100 CALM      29.99F
OXFORD         FAIR      64  63  94 CALM      30.02S
TUNICA         MOSUNNY   68  66  94 S3        29.99F
$$

MSZ003>006-009-014>017-022>024-029>033-037>039-260900-
NORTHEAST MISSISSIPPI

CITY           SKY/WX    TMP DP  RH WIND       PRES   REMARKS
BELMONT        FAIR      65  64  99 CALM      30.02S FOG
COLUMBUS AFB   CLEAR     64  64 100 CALM      30.01S
CORINTH        FOG       64  63  94 CALM      30.01R VSB 1/4
GOLDN TRIANGLE CLEAR     66  61  82 CALM      30.01F
STARKVILLE     FAIR      63  61  94 CALM      30.01S
TUPELO         CLEAR     66  64  93 SW5       30.01R
$$

MSZ040-058-260900-
CENTRAL MISSISSIPPI

CITY           SKY/WX    TMP DP  RH WIND       PRES   REMARKS
JACKSON INTL   CLEAR     72  71  97 CALM      30.00F
JACKSON HAWKNS CLEAR     75  70  84 CALM      30.01S
MERIDIAN KEY   CLEAR     70  68  93 CALM      30.01S
MERIDIAN NAS   CLEAR     69  68  96 CALM      30.02S
RAYMOND        FAIR      72  66  83 CALM      30.00S HAZE
VICKSBURG      CLEAR     71  69  93 CALM      29.98F FOG
$$

MSZ059>079-260900-
SOUTH MISSISSIPPI

CITY           SKY/WX    TMP DP  RH WIND       PRES   REMARKS
BROOKHAVEN     FAIR      73  73 100 S3        30.03S FOG
COLUMBIA       FAIR      73  73 100 CALM      30.00S FOG
HATTIESBURG    CLEAR     76  73  91 CALM      30.01F
MCCOMB         CLEAR     75  73  93 CALM      30.01F FOG
NATCHEZ        PTCLDY    75  73  94 S5        30.00F
PINE BELT        N/A     73  70  88 CALM      30.02F VSB 3/4
$$

MSZ080>082-260900-
COASTAL MISSISSIPPI

CITY           SKY/WX    TMP DP  RH WIND       PRES   REMARKS
BILOXI         CLEAR     80  76  89 VRB3      30.00S
PASCAGOULA     CLEAR     76  75  97 CALM      30.00S FOG
GULFPORT       CLEAR     81  75  82 CALM      30.00S
$$



USA.gov is the U.S. government's official web portal to all federal, state and local government web resources and services.